| time (UTC) | temp F | wind direction | speed MPH | gust MPH | rain 1hr in | rain 24hr in | rain mn in | humidity % | barometer mb |
| 20260506174542 | 63 | 281 | 6.0 | 13.0 | 0.00 | 0.67 | 0.50 | 65 | 1010.5 |
| 20260506173056 | 64 | 227 | 5.0 | 10.0 | 0.00 | 0.67 | 0.50 | 63 | 1010.3 |
| 20260506171551 | 65 | 230 | 4.0 | 10.0 | 0.00 | 0.67 | 0.50 | 61 | 1010.2 |
| 20260506170039 | 65 | 209 | 5.0 | 13.0 | 0.00 | 0.67 | 0.50 | 60 | 1010.2 |
| 20260506164540 | 65 | 206 | 7.0 | 13.0 | 0.00 | 0.67 | 0.50 | 57 | 1010.1 |
| 20260506163052 | 66 | 234 | 3.0 | 13.0 | 0.00 | 0.67 | 0.50 | 56 | 1010.1 |
| 20260506161542 | 66 | 194 | 5.0 | 13.0 | 0.00 | 0.67 | 0.50 | 56 | 1010.0 |
| 20260506160037 | 66 | 234 | 6.0 | 15.0 | 0.00 | 0.67 | 0.50 | 55 | 1010.2 |
| 20260506154538 | 66 | 193 | 6.0 | 13.0 | 0.00 | 0.67 | 0.50 | 54 | 1010.3 |
| 20260506153039 | 67 | 217 | 7.0 | 15.0 | 0.00 | 0.67 | 0.50 | 54 | 1010.3 |
| 20260506151534 | 66 | 230 | 4.0 | 15.0 | 0.00 | 0.67 | 0.50 | 55 | 1010.3 |
| 20260506150033 | 66 | 200 | 6.0 | 16.0 | 0.00 | 0.67 | 0.50 | 53 | 1010.3 |
| 20260506144532 | 66 | 229 | 6.0 | 15.0 | 0.00 | 0.67 | 0.50 | 55 | 1010.4 |
| 20260506143032 | 66 | 211 | 7.0 | 15.0 | 0.00 | 0.67 | 0.50 | 55 | 1010.4 |
| 20260506141532 | 67 | 244 | 9.0 | 18.0 | 0.00 | 0.67 | 0.50 | 51 | 1010.4 |
| 20260506140037 | 67 | 194 | 8.0 | 18.0 | 0.00 | 0.67 | 0.50 | 51 | 1010.4 |
| 20260506134529 | 67 | 189 | 10.0 | 16.0 | 0.00 | 0.67 | 0.50 | 52 | 1010.4 |
| 20260506133029 | 67 | 199 | 5.0 | 16.0 | 0.00 | 0.67 | 0.50 | 58 | 1010.5 |
| 20260506131528 | 67 | 229 | 7.0 | 18.0 | 0.00 | 0.67 | 0.50 | 58 | 1010.5 |
| 20260506130024 | 67 | 196 | 6.0 | 14.0 | 0.00 | 0.67 | 0.50 | 58 | 1010.5 |
| 20260506124525 | 68 | 224 | 8.0 | 16.0 | 0.00 | 0.67 | 0.50 | 54 | 1010.6 |
| 20260506123022 | 67 | 176 | 8.0 | 17.0 | 0.00 | 0.67 | 0.50 | 63 | 1010.6 |
| 20260506121520 | 67 | 162 | 7.0 | 16.0 | 0.00 | 0.67 | 0.50 | 64 | 1010.6 |
| 20260506120022 | 67 | 232 | 9.0 | 15.0 | 0.00 | 0.67 | 0.50 | 63 | 1010.7 |
| 20260506114516 | 66 | 175 | 6.0 | 18.0 | 0.00 | 0.67 | 0.50 | 65 | 1010.6 |
| 20260506113017 | 66 | 177 | 8.0 | 16.0 | 0.00 | 0.67 | 0.50 | 66 | 1010.6 |
| 20260506111513 | 66 | 191 | 6.0 | 17.0 | 0.00 | 0.67 | 0.50 | 67 | 1010.7 |
| 20260506110011 | 65 | 158 | 6.0 | 16.0 | 0.00 | 0.67 | 0.50 | 69 | 1010.9 |
| 20260506104510 | 66 | 192 | 8.0 | 14.0 | 0.00 | 0.67 | 0.50 | 67 | 1010.9 |
| 20260506103008 | 65 | 217 | 6.0 | 17.0 | 0.00 | 0.67 | 0.50 | 68 | 1011.0 |
| 20260506101507 | 66 | 178 | 8.0 | 14.0 | 0.00 | 0.67 | 0.50 | 67 | 1010.8 |
| 20260506100004 | 65 | 180 | 5.0 | 10.0 | 0.00 | 0.67 | 0.50 | 66 | 1010.8 |
| 20260506094501 | 65 | 237 | 5.0 | 11.0 | 0.00 | 0.67 | 0.50 | 67 | 1010.8 |
| 20260506093112 | 65 | 218 | 3.0 | 11.0 | 0.00 | 0.67 | 0.50 | 70 | 1010.8 |
| 20260506091556 | 64 | 262 | 4.0 | 8.0 | 0.00 | 0.67 | 0.50 | 71 | 1010.7 |
| 20260506090058 | 63 | 188 | 2.0 | 8.0 | 0.00 | 0.67 | 0.50 | 75 | 1010.6 |
| 20260506084550 | 63 | 263 | 3.0 | 6.0 | 0.00 | 0.67 | 0.50 | 75 | 1010.6 |
| 20260506083047 | 63 | 235 | 3.0 | 6.0 | 0.00 | 0.67 | 0.50 | 77 | 1010.5 |
| 20260506081543 | 61 | 288 | 3.0 | 7.0 | 0.00 | 0.67 | 0.50 | 78 | 1010.5 |
| 20260506073034 | 60 | 240 | 2.0 | 6.0 | 0.00 | 0.67 | 0.50 | 86 | 1010.2 |
| 20260506071534 | 59 | 151 | 1.0 | 6.0 | 0.00 | 0.67 | 0.50 | 86 | 1010.1 |
| 20260506061513 | 58 | 306 | 1.0 | 4.0 | 0.00 | 0.67 | 0.50 | 90 | 1009.7 |
| 20260506044539 | 56 | 306 | 1.0 | 5.0 | 0.01 | 0.67 | 0.50 | 93 | 1009.1 |
| 20260506043036 | 56 | 280 | 2.0 | 5.0 | 0.00 | 0.66 | 0.50 | 93 | 1009.0 |
| 20260506041536 | 56 | 308 | 2.0 | 4.0 | 0.00 | 0.66 | 0.50 | 93 | 1009.0 |
| 20260506040034 | 56 | 73 | 2.0 | 4.0 | 0.00 | 0.66 | 0.50 | 93 | 1008.9 |
| 20260506034534 | 57 | 73 | 0.0 | 3.0 | 0.00 | 0.66 | 0.50 | 93 | 1008.9 |
| 20260506033034 | 57 | 73 | 1.0 | 4.0 | 0.00 | 0.66 | 0.50 | 93 | 1008.8 |
| 20260506031533 | 57 | 73 | 1.0 | 3.0 | 0.00 | 0.66 | 0.50 | 93 | 1008.7 |
| 20260506030033 | 57 | 73 | 1.0 | 3.0 | 0.00 | 0.66 | 0.50 | 93 | 1008.7 |
| 20260506024532 | 56 | 73 | 1.0 | 4.0 | 0.00 | 0.66 | 0.50 | 93 | 1008.6 |
| 20260506023031 | 56 | 73 | 0.0 | 2.0 | 0.00 | 0.66 | 0.50 | 93 | 1008.5 |
| 20260506021531 | 56 | 73 | 0.0 | 3.0 | 0.00 | 0.66 | 0.50 | 93 | 1008.4 |
| 20260506020053 | 56 | 73 | 1.0 | 4.0 | 0.20 | 0.66 | 0.50 | 93 | 1008.4 |
| 20260506014526 | 56 | 73 | 0.0 | 4.0 | 0.28 | 0.66 | 0.50 | 93 | 1008.6 |
| 20260506013026 | 57 | 157 | 1.0 | 3.0 | 0.40 | 0.66 | 0.50 | 93 | 1008.8 |
| 20260506011528 | 57 | 104 | 6.0 | 10.0 | 0.43 | 0.66 | 0.50 | 93 | 1009.0 |
| 20260506010025 | 57 | 254 | 5.0 | 11.0 | 0.28 | 0.46 | 0.28 | 92 | 1009.2 |
| 20260506004524 | 57 | 285 | 5.0 | 8.0 | 0.20 | 0.38 | 0.20 | 92 | 1008.8 |
| 20260506003019 | 58 | 40 | 4.0 | 9.0 | 0.09 | 0.28 | 0.09 | 92 | 1008.8 |
| 20260506001516 | 58 | 344 | 3.0 | 8.0 | 0.06 | 0.24 | 0.06 | 92 | 1008.9 |
| 20260506000018 | 58 | 241 | 3.0 | 7.0 | 0.00 | 0.18 | 0.00 | 92 | 1008.8 |
| 20260505234513 | 58 | 55 | 5.0 | 9.0 | 0.00 | 0.44 | 0.00 | 92 | 1008.8 |
| 20260505233008 | 58 | 30 | 3.0 | 6.0 | 0.00 | 0.44 | 0.00 | 92 | 1009.4 |
| 20260505231508 | 58 | 49 | 1.0 | 3.0 | 0.00 | 0.44 | 0.00 | 92 | 1009.7 |
| 20260505230015 | 58 | 48 | 0.0 | 3.0 | 0.00 | 0.44 | 0.00 | 92 | 1010.0 |
| 20260505224504 | 58 | 48 | 2.0 | 6.0 | 0.00 | 0.63 | 0.00 | 92 | 1009.9 |
| 20260505223001 | 58 | 11 | 0.0 | 3.0 | 0.00 | 0.63 | 0.00 | 92 | 1010.1 |
| 20260505221602 | 58 | 41 | 1.0 | 3.0 | 0.00 | 0.63 | 0.00 | 92 | 1010.3 |
| 20260505220106 | 58 | 5 | 0.0 | 4.0 | 0.00 | 0.63 | 0.00 | 92 | 1010.6 |
| 20260505214605 | 58 | 53 | 3.0 | 8.0 | 0.02 | 0.71 | 0.63 | 92 | 1010.7 |
| 20260505213053 | 59 | 63 | 1.0 | 6.0 | 0.07 | 0.71 | 0.63 | 91 | 1010.9 |
| 20260505211626 | 59 | 51 | 2.0 | 4.0 | 0.12 | 0.71 | 0.63 | 92 | 1010.9 |
| 20260505210051 | 59 | 51 | 2.0 | 5.0 | 0.16 | 0.71 | 0.63 | 91 | 1011.1 |
| 20260505204600 | 60 | 32 | 4.0 | 9.0 | 0.14 | 0.71 | 0.61 | 91 | 1011.2 |
| 20260505203052 | 60 | 88 | 3.0 | 9.0 | 0.09 | 0.65 | 0.55 | 90 | 1011.9 |
| 20260505201549 | 61 | 53 | 5.0 | 7.0 | 0.05 | 0.61 | 0.51 | 88 | 1011.2 |
| 20260505200049 | 61 | 43 | 2.0 | 5.0 | 0.01 | 0.56 | 0.47 | 86 | 1011.5 |
| 20260505194547 | 62 | 44 | 1.0 | 5.0 | 0.00 | 0.56 | 0.46 | 84 | 1011.4 |
| 20260505193046 | 62 | 43 | 2.0 | 4.0 | 0.00 | 0.56 | 0.46 | 82 | 1011.4 |
| 20260505191546 | 62 | 173 | 0.0 | 2.0 | 0.00 | 0.56 | 0.46 | 81 | 1011.1 |
| 20260505190044 | 62 | 173 | 0.0 | 4.0 | 0.00 | 0.56 | 0.46 | 80 | 1011.2 |
| 20260505184545 | 62 | 173 | 1.0 | 3.0 | 0.00 | 0.56 | 0.46 | 79 | 1011.3 |
| 20260505183044 | 63 | 173 | 1.0 | 3.0 | 0.00 | 0.56 | 0.46 | 80 | 1011.2 |
| 20260505181605 | 63 | 173 | 1.0 | 4.0 | 0.00 | 0.56 | 0.46 | 80 | 1011.1 |
| 20260505180056 | 63 | 173 | 1.0 | 4.0 | 0.00 | 0.56 | 0.46 | 80 | 1011.2 |